EW8697 Weather Reports


time (UTC)temp
F
wind
direction
speed
knots
gust
knots
rain 1hr
in
rain 24hr
in
rain mn
in
humidity
%
barometer
mb
20240418170021 59 295 0.9 7.0 0.00 0.21 0.00 65 1012.9
20240418164518 59 201 0.0 4.3 0.00 0.21 0.00 66 1013.0
20240418163043 58 262 0.0 7.8 0.00 0.21 0.00 68 1013.2
20240418161524 58 285 0.9 7.0 0.00 0.21 0.00 67 1013.0
20240418160031 58 307 0.0 0.0 0.00 0.21 0.00 67 1013.1
20240418154522 56 295 0.0 9.6 0.00 0.21 0.00 70 1013.2
20240418153016 56 313 0.0 0.0 0.00 0.21 0.00 70 1013.3
20240418151514 55 193 0.0 1.7 0.00 0.21 0.00 73 1013.2
20240418150029 55 240 0.0 4.3 0.00 0.21 0.00 74 1013.3
20240418144533 55 255 0.9 7.8 0.00 0.21 0.00 73 1013.1
20240418143024 54 304 0.0 0.0 0.00 0.21 0.00 73 1013.1
20240418141518 54 297 0.0 0.9 0.00 0.21 0.00 73 1012.9
20240418140018 54 310 4.3 10.4 0.00 0.21 0.00 73 1013.0
20240418134510 54 263 3.5 8.7 0.00 0.21 0.00 73 1012.7
20240418133036 54 327 3.5 8.7 0.00 0.21 0.00 74 1012.6
20240418131535 54 263 0.0 13.9 0.00 0.21 0.00 74 1012.1
20240418130027 54 312 5.2 12.2 0.00 0.21 0.00 74 1012.1
20240418124520 54 259 0.0 5.2 0.00 0.21 0.00 77 1011.2
20240418123019 54 243 0.0 8.7 0.00 0.21 0.00 78 1010.8
20240418121528 54 239 4.3 11.3 0.00 0.21 0.00 79 1010.7
20240418120007 54 273 1.7 7.0 0.00 0.21 0.00 82 1010.4
20240418114532 54 246 0.0 0.0 0.00 0.21 0.00 82 1010.3
20240418113023 54 255 0.0 0.0 0.00 0.21 0.00 83 1010.1
20240418111525 54 240 0.0 0.0 0.00 0.21 0.00 82 1009.8
20240418110015 54 230 0.0 0.0 0.00 0.21 0.00 83 1009.6
20240418104520 54 233 0.0 7.0 0.00 0.21 0.00 83 1009.3
20240418103031 54 240 0.0 4.3 0.00 0.21 0.00 83 1009.2
20240418101525 54 250 0.9 7.0 0.00 0.21 0.00 82 1009.0
20240418100023 54 248 0.0 0.0 0.00 0.21 0.00 83 1009.2
20240418094518 54 240 0.0 6.1 0.00 0.21 0.00 82 1009.0
20240418093027 54 241 1.7 5.2 0.00 0.21 0.00 82 1009.1
20240418091514 54 258 0.0 0.0 0.00 0.21 0.00 82 1009.0
20240418090014 54 257 1.7 4.3 0.00 0.21 0.00 82 1008.9
20240418084535 54 285 2.6 7.8 0.00 0.21 0.00 82 1008.7
20240418083038 54 259 0.9 7.0 0.00 0.21 0.00 82 1008.5
20240418081524 54 295 0.9 5.2 0.00 0.21 0.00 82 1008.3
20240418080019 54 252 1.7 5.2 0.00 0.21 0.00 82 1008.1
20240418074518 55 279 0.0 6.1 0.00 0.21 0.00 81 1008.0
20240418073024 55 237 0.9 5.2 0.00 0.21 0.00 82 1007.9
20240418071509 55 248 0.0 3.5 0.00 0.21 0.00 81 1007.6
20240418070050 56 282 3.5 8.7 0.00 0.21 0.00 80 1007.5
20240418064524 56 262 3.5 8.7 0.00 0.21 0.00 80 1007.3
20240418063024 56 223 0.0 0.0 0.00 0.21 0.00 80 1007.2
20240418061516 56 263 0.0 0.0 0.00 0.21 0.00 81 1007.1
20240418060012 56 250 0.0 0.0 0.00 0.21 0.00 80 1007.0
20240418054527 56 264 0.0 0.0 0.00 0.21 0.00 80 1007.0
20240418053019 56 250 0.0 0.0 0.00 0.21 0.00 80 1007.0
20240418051523 57 309 0.0 4.3 0.00 0.21 0.00 79 1006.8
20240418050018 57 244 0.0 0.0 0.00 0.21 0.00 80 1006.8
20240418044513 57 243 0.0 5.2 0.00 0.21 0.00 80 1006.7
20240418043030 57 238 0.0 4.3 0.00 0.21 0.00 80 1006.5
20240418041524 57 271 0.0 4.3 0.00 0.21 0.00 79 1006.4
20240418040026 58 266 0.0 3.5 0.00 0.21 0.00 79 1006.1
20240418034522 58 312 0.0 7.0 0.00 0.21 0.21 79 1006.1
20240418033034 58 284 0.0 5.2 0.00 0.21 0.21 80 1005.8
20240418031510 58 278 1.7 4.3 0.00 0.21 0.21 80 1005.9
20240418030006 58 285 0.9 3.5 0.00 0.21 0.21 80 1005.6
20240418024506 59 275 1.7 11.3 0.00 0.21 0.21 80 1005.7
20240418023007 58 266 0.0 2.6 0.00 0.21 0.21 83 1005.6
20240418021526 59 260 0.0 0.0 0.00 0.21 0.21 87 1005.5
20240418020025 59 236 0.0 0.0 0.00 0.21 0.21 89 1005.3
20240418014519 59 255 0.0 0.0 0.00 0.21 0.21 89 1004.7
20240418013016 60 230 0.0 0.0 0.00 0.21 0.21 89 1004.5
20240418011523 60 264 0.0 0.0 0.00 0.21 0.21 90 1004.5
20240418010008 60 250 0.0 4.3 0.00 0.21 0.21 90 1004.3
20240418004509 60 229 0.0 3.5 0.00 0.21 0.21 89 1003.8
20240418003038 60 232 0.9 6.1 0.00 0.21 0.21 89 1003.4
20240418001622 61 272 0.9 6.1 0.00 0.21 0.21 89 1003.0
20240418000020 61 253 0.0 0.0 0.00 0.21 0.21 89 1003.0
20240417234518 61 307 0.0 3.5 0.01 0.21 0.21 89 1002.7
20240417233010 62 263 0.0 7.8 0.04 0.21 0.21 89 1002.7
20240417231508 62 249 0.9 6.1 0.11 0.21 0.21 89 1002.7
20240417230042 62 257 0.9 7.8 0.11 0.21 0.21 89 1002.3
20240417224537 62 238 1.7 9.6 0.12 0.20 0.20 89 1001.9
20240417223028 63 273 7.0 17.4 0.14 0.17 0.17 88 1001.3
20240417221518 65 121 0.0 0.0 0.09 0.10 0.10 83 998.4
20240417220017 65 127 0.0 0.0 0.10 0.10 0.10 85 998.8
20240417214510 67 124 0.0 0.0 0.07 0.07 0.07 77 1000.4
20240417213027 69 183 0.0 0.0 0.03 0.03 0.03 71 1000.1
20240417211525 70 208 0.0 0.0 0.01 0.01 0.01 67 1000.2
20240417210022 72 200 0.0 0.0 0.00 0.00 0.00 64 1000.4
20240417204523 74 131 0.0 3.5 0.00 0.00 0.00 58 1000.6
20240417203014 74 160 0.0 11.3 0.00 0.00 0.00 58 1000.3
20240417201533 74 158 0.0 9.6 0.00 0.00 0.00 59 1000.6
20240417200030 74 134 0.0 0.9 0.00 0.00 0.00 58 1000.9
20240417194535 75 203 0.0 9.6 0.00 0.00 0.00 57 1001.4
20240417193031 75 212 0.0 11.3 0.00 0.00 0.00 56 1001.5
20240417191518 75 202 0.0 2.6 0.00 0.00 0.00 57 1001.6
20240417190011 74 130 0.0 7.8 0.00 0.00 0.00 60 1001.7
20240417184530 73 180 0.0 1.7 0.00 0.00 0.00 62 1002.0
20240417183025 72 197 0.0 7.8 0.00 0.00 0.00 66 1002.0
20240417181520 71 206 0.0 11.3 0.00 0.00 0.00 66 1002.5
20240417180024 71 163 0.0 8.7 0.00 0.00 0.00 65 1002.8
20240417174520 70 155 0.0 4.3 0.00 0.00 0.00 66 1003.1
20240417173009 71 202 0.0 13.9 0.00 0.00 0.00 66 1003.5
20240417171509 70 114 0.0 7.8 0.00 0.00 0.00 69 1003.8